TimeMDT,TemperatureF,Dew PointF,Humidity,Sea Level PressureIn,VisibilityMPH,Wind Direction,Wind SpeedMPH,Gust SpeedMPH,PrecipitationIn,Events,Conditions,WindDirDegrees,DateUTC
12:53 AM,37.9,25.0,60,30.08,10.0,North,3.5,-,N/A,,Clear,10,2013-10-17 06:53:00
1:53 AM,36.0,27.0,70,30.09,10.0,NW,4.6,-,N/A,,Overcast,310,2013-10-17 07:53:00
2:53 AM,35.1,26.1,70,30.09,10.0,NNW,4.6,-,N/A,,Clear,330,2013-10-17 08:53:00
3:53 AM,33.1,27.0,78,30.08,10.0,NW,5.8,-,N/A,,Clear,320,2013-10-17 09:53:00
4:53 AM,33.1,27.0,78,30.10,10.0,WNW,4.6,-,N/A,,Clear,300,2013-10-17 10:53:00
5:53 AM,34.0,27.0,75,30.11,10.0,WNW,3.5,-,N/A,,Overcast,290,2013-10-17 11:53:00
6:53 AM,35.1,28.0,76,30.12,10.0,Calm,Calm,-,N/A,,Overcast,0,2013-10-17 12:53:00
7:53 AM,33.1,30.0,89,30.13,9.0,Calm,Calm,-,N/A,,Overcast,0,2013-10-17 13:53:00
8:53 AM,34.0,30.0,85,30.16,10.0,Calm,Calm,-,N/A,,Overcast,0,2013-10-17 14:53:00
9:43 AM,35.6,30.2,81,30.14,6.0,Calm,Calm,-,N/A,,Haze,0,2013-10-17 15:43:00
9:53 AM,36.0,30.0,79,30.16,7.0,Calm,Calm,-,N/A,,Overcast,0,2013-10-17 15:53:00
10:53 AM,37.0,30.0,76,30.14,10.0,Variable,3.5,-,N/A,,Overcast,0,2013-10-17 16:53:00
11:28 AM,39.2,30.2,70,30.11,10.0,Calm,Calm,-,N/A,,Overcast,0,2013-10-17 17:28:00
11:53 AM,39.9,30.0,68,30.11,10.0,Variable,4.6,-,N/A,,Overcast,0,2013-10-17 17:53:00
12:53 PM,42.1,30.9,65,30.08,10.0,NE,6.9,-,N/A,,Overcast,50,2013-10-17 18:53:00
1:03 PM,42.8,30.2,61,30.08,10.0,NNE,4.6,-,N/A,,Overcast,30,2013-10-17 19:03:00
1:53 PM,42.1,28.9,60,30.06,10.0,Calm,Calm,-,N/A,,Overcast,0,2013-10-17 19:53:00
2:00 PM,42.8,28.4,57,30.06,10.0,Calm,Calm,-,N/A,,Overcast,0,2013-10-17 20:00:00
2:53 PM,42.1,30.9,65,30.05,10.0,East,6.9,-,N/A,,Mostly Cloudy,80,2013-10-17 20:53:00
3:53 PM,41.0,30.9,67,30.06,10.0,NE,9.2,-,N/A,,Overcast,50,2013-10-17 21:53:00
4:53 PM,37.0,33.1,86,30.08,5.0,NE,8.1,-,0.01,Rain,Light Rain,50,2013-10-17 22:53:00
5:25 PM,35.6,33.8,93,30.06,5.0,NE,10.4,-,0.03,Rain,Light Rain,40,2013-10-17 23:25:00
5:44 PM,35.6,33.8,93,30.07,2.0,NNE,10.4,-,0.05,Snow,Light Snow,30,2013-10-17 23:44:00
5:53 PM,35.1,33.1,92,30.11,2.5,North,8.1,-,0.06,Snow,Light Snow,10,2013-10-17 23:53:00
6:01 PM,33.8,33.8,100,30.08,4.0,North,11.5,-,0.00,Snow,Light Snow,10,2013-10-18 00:01:00
6:34 PM,33.8,32.0,93,30.11,1.8,North,15.0,21.9,0.01,Snow,Light Snow,350,2013-10-18 00:34:00
6:53 PM,32.0,30.9,96,30.17,2.0,NNW,5.8,-,0.04,Snow,Light Snow,340,2013-10-18 00:53:00
7:07 PM,30.2,30.2,100,30.12,1.5,North,11.5,-,0.01,Snow,Light Snow,360,2013-10-18 01:07:00
7:42 PM,30.2,30.2,100,30.13,1.5,NNW,4.6,-,0.02,Snow,Light Snow,330,2013-10-18 01:42:00
7:53 PM,30.9,30.9,100,30.20,1.5,WNW,5.8,-,0.02,Snow,Light Snow,290,2013-10-18 01:53:00
8:02 PM,30.2,30.2,100,30.14,2.0,West,3.5,-,0.00,Snow,Light Snow,270,2013-10-18 02:02:00
8:20 PM,30.2,30.2,100,30.13,1.8,SSW,4.6,-,0.00,Snow,Light Snow,210,2013-10-18 02:20:00
8:22 PM,30.2,30.2,100,30.13,2.0,SW,4.6,-,0.00,Snow,Light Snow,220,2013-10-18 02:22:00
8:32 PM,30.2,30.2,100,30.13,4.0,WSW,3.5,-,0.00,Snow,Light Snow,240,2013-10-18 02:32:00
8:53 PM,32.0,30.9,96,30.20,6.0,WSW,4.6,-,0.00,,Overcast,250,2013-10-18 02:53:00
9:22 PM,32.0,30.2,93,30.14,10.0,Calm,Calm,-,N/A,,Overcast,0,2013-10-18 03:22:00
9:53 PM,32.0,30.9,96,30.19,10.0,Calm,Calm,-,N/A,,Overcast,0,2013-10-18 03:53:00
10:53 PM,32.0,30.9,96,30.19,10.0,South,3.5,-,N/A,,Overcast,190,2013-10-18 04:53:00
11:13 PM,32.0,30.2,93,30.15,10.0,SSE,3.5,-,N/A,,Overcast,150,2013-10-18 05:13:00
11:53 PM,33.1,28.9,85,30.18,10.0,Calm,Calm,-,N/A,,Overcast,0,2013-10-18 05:53:00